Time,TemperatureF,DewpointF,PressureIn,WindDirection,WindDirectionDegrees,WindSpeedMPH,WindSpeedGustMPH,Humidity,HourlyPrecipIn,Conditions,Clouds,dailyrainin,SoftwareType,DateUTC
2013-09-15 00:09:00,59.5,54.0,29.98,ENE,65,0.0,-999.0,82,-99.99,,,0.00,weatherlink.com 1.10,2013-09-15 05:09:00,
2013-09-15 00:24:00,58.7,54.0,29.98,ENE,64,0.0,-999.0,85,-99.99,,,0.00,weatherlink.com 1.10,2013-09-15 05:24:00,
2013-09-15 00:39:00,58.6,55.0,29.98,ENE,64,0.0,-999.0,86,-99.99,,,0.00,weatherlink.com 1.10,2013-09-15 05:39:00,
2013-09-15 00:54:00,58.6,55.0,29.98,ENE,65,0.0,-999.0,86,-99.99,,,0.00,weatherlink.com 1.10,2013-09-15 05:54:00,
2013-09-15 01:09:00,58.3,54.0,29.98,ENE,63,0.0,-999.0,86,-99.99,,,0.00,weatherlink.com 1.10,2013-09-15 06:09:00,
2013-09-15 01:24:00,58.4,54.0,29.98,ENE,65,0.0,-999.0,85,-99.99,,,0.00,weatherlink.com 1.10,2013-09-15 06:24:00,
2013-09-15 01:39:00,58.1,54.0,29.98,ENE,65,0.0,-999.0,85,-99.99,,,0.00,weatherlink.com 1.10,2013-09-15 06:39:00,
2013-09-15 01:54:00,57.6,53.0,29.97,ENE,65,0.0,-999.0,85,-99.99,,,0.00,weatherlink.com 1.10,2013-09-15 06:54:00,
2013-09-15 02:09:00,57.3,53.0,29.97,ENE,64,0.0,-999.0,85,-99.99,,,0.00,weatherlink.com 1.10,2013-09-15 07:09:00,
2013-09-15 02:24:00,57.3,53.0,29.97,ENE,64,0.0,-999.0,84,-99.99,,,0.00,weatherlink.com 1.10,2013-09-15 07:24:00,
2013-09-15 02:39:00,57.2,52.0,29.97,ENE,63,0.0,-999.0,84,-99.99,,,0.00,weatherlink.com 1.10,2013-09-15 07:39:00,
2013-09-15 02:54:00,57.5,52.0,29.96,ENE,64,0.0,-999.0,83,-99.99,,,0.00,weatherlink.com 1.10,2013-09-15 07:54:00,
2013-09-15 03:09:00,56.9,52.0,29.96,ENE,64,0.0,-999.0,84,-99.99,,,0.00,weatherlink.com 1.10,2013-09-15 08:09:00,
2013-09-15 03:24:00,56.9,53.0,29.96,ENE,65,0.0,-999.0,85,-99.99,,,0.00,weatherlink.com 1.10,2013-09-15 08:24:00,
2013-09-15 03:39:00,56.7,52.0,29.97,ENE,64,0.0,-999.0,85,-99.99,,,0.00,weatherlink.com 1.10,2013-09-15 08:39:00,
2013-09-15 04:09:00,55.7,52.0,29.97,ENE,64,0.0,-999.0,88,-99.99,,,0.00,weatherlink.com 1.10,2013-09-15 09:09:00,
2013-09-15 04:24:00,55.6,52.0,29.97,ENE,64,0.0,-999.0,88,-99.99,,,0.00,weatherlink.com 1.10,2013-09-15 09:24:00,
2013-09-15 04:39:00,55.4,52.0,29.97,ENE,64,0.0,-999.0,89,-99.99,,,0.00,weatherlink.com 1.10,2013-09-15 09:39:00,
2013-09-15 04:54:00,55.4,52.0,29.97,ENE,65,0.0,-999.0,89,-99.99,,,0.00,weatherlink.com 1.10,2013-09-15 09:54:00,
2013-09-15 05:09:00,55.1,52.0,29.97,ENE,65,0.0,-999.0,89,-99.99,,,0.00,weatherlink.com 1.10,2013-09-15 10:09:00,
2013-09-15 05:24:00,55.1,52.0,29.97,ENE,64,0.0,-999.0,89,-99.99,,,0.00,weatherlink.com 1.10,2013-09-15 10:24:00,
2013-09-15 05:39:00,55.1,52.0,29.97,ENE,64,0.0,-999.0,89,-99.99,,,0.00,weatherlink.com 1.10,2013-09-15 10:39:00,
2013-09-15 05:54:00,55.3,52.0,29.97,ENE,65,0.0,-999.0,88,-99.99,,,0.00,weatherlink.com 1.10,2013-09-15 10:54:00,
2013-09-15 06:09:00,55.4,52.0,29.98,ENE,65,0.0,-999.0,88,-99.99,,,0.00,weatherlink.com 1.10,2013-09-15 11:09:00,
2013-09-15 06:24:00,55.1,52.0,29.98,ENE,65,0.0,-999.0,89,-99.99,,,0.00,weatherlink.com 1.10,2013-09-15 11:24:00,
2013-09-15 06:39:00,55.6,52.0,29.98,ENE,65,0.0,-999.0,88,-99.99,,,0.00,weatherlink.com 1.10,2013-09-15 11:39:00,
2013-09-15 06:54:00,55.9,52.0,29.99,ENE,65,0.0,-999.0,87,-99.99,,,0.00,weatherlink.com 1.10,2013-09-15 11:54:00,
2013-09-15 07:09:00,58.6,53.0,29.99,SE,125,0.0,-999.0,82,-99.99,,,0.00,weatherlink.com 1.10,2013-09-15 12:09:00,
2013-09-15 07:25:00,60.1,53.0,29.99,SE,133,0.0,-999.0,77,-99.99,,,0.00,weatherlink.com 1.10,2013-09-15 12:25:00,
2013-09-15 07:40:00,61.2,53.0,30.00,SE,140,0.0,-999.0,74,-99.99,,,0.00,weatherlink.com 1.10,2013-09-15 12:40:00,
2013-09-15 07:55:00,62.3,54.0,30.00,SE,141,0.0,-999.0,73,-99.99,,,0.00,weatherlink.com 1.10,2013-09-15 12:55:00,
2013-09-15 08:10:00,63.2,54.0,30.00,SSE,154,0.0,-999.0,73,-99.99,,,0.00,weatherlink.com 1.10,2013-09-15 13:10:00,
2013-09-15 08:25:00,64.5,55.0,30.00,SSE,164,0.0,-999.0,70,-99.99,,,0.00,weatherlink.com 1.10,2013-09-15 13:25:00,
2013-09-15 08:40:00,65.0,55.0,30.00,SSE,157,0.0,-999.0,70,-99.99,,,0.00,weatherlink.com 1.10,2013-09-15 13:40:00,
2013-09-15 08:55:00,65.3,55.0,30.00,SSE,154,0.0,-999.0,70,-99.99,,,0.00,weatherlink.com 1.10,2013-09-15 13:55:00,
2013-09-15 09:10:00,66.9,56.0,30.01,South,171,0.0,-999.0,68,-99.99,,,0.00,weatherlink.com 1.10,2013-09-15 14:10:00,
2013-09-15 09:25:00,69.4,55.0,30.01,SSE,159,0.0,-999.0,61,-99.99,,,0.00,weatherlink.com 1.10,2013-09-15 14:25:00,
2013-09-15 09:40:00,70.8,56.0,30.02,SSE,159,0.0,-999.0,59,-99.99,,,0.00,weatherlink.com 1.10,2013-09-15 14:40:00,
2013-09-15 10:10:00,71.8,56.0,30.02,SW,214,0.0,-999.0,57,-99.99,,,0.00,weatherlink.com 1.10,2013-09-15 15:10:00,
2013-09-15 10:25:00,73.2,56.0,30.02,SW,221,1.0,-999.0,56,-99.99,,,0.00,weatherlink.com 1.10,2013-09-15 15:25:00,
2013-09-15 10:40:00,74.7,56.0,30.02,SW,218,1.0,-999.0,53,-99.99,,,0.00,weatherlink.com 1.10,2013-09-15 15:40:00,
2013-09-15 10:55:00,76.1,56.0,30.02,WSW,253,4.0,-999.0,50,-99.99,,,0.00,weatherlink.com 1.10,2013-09-15 15:55:00,
2013-09-15 11:10:00,76.1,55.0,30.02,West,265,4.0,-999.0,48,-99.99,,,0.00,weatherlink.com 1.10,2013-09-15 16:10:00,
2013-09-15 11:25:00,77.9,52.0,30.02,West,265,0.0,-999.0,41,-99.99,,,0.00,weatherlink.com 1.10,2013-09-15 16:25:00,
2013-09-15 11:40:00,77.9,50.0,30.02,SW,224,1.0,-999.0,38,-99.99,,,0.00,weatherlink.com 1.10,2013-09-15 16:40:00,
2013-09-15 11:55:00,78.8,52.0,30.02,WSW,238,0.0,-999.0,39,-99.99,,,0.00,weatherlink.com 1.10,2013-09-15 16:55:00,
2013-09-15 12:10:00,78.8,50.0,30.02,SW,224,0.0,-999.0,37,-99.99,,,0.00,weatherlink.com 1.10,2013-09-15 17:10:00,
2013-09-15 12:25:00,80.1,52.0,30.02,WSW,245,0.0,-999.0,38,-99.99,,,0.00,weatherlink.com 1.10,2013-09-15 17:25:00,
2013-09-15 12:40:00,79.8,50.0,30.02,West,270,1.0,-999.0,35,-99.99,,,0.00,weatherlink.com 1.10,2013-09-15 17:40:00,
2013-09-15 12:55:00,80.9,51.0,30.02,WNW,287,0.0,-999.0,35,-99.99,,,0.00,weatherlink.com 1.10,2013-09-15 17:55:00,
2013-09-15 13:10:00,81.2,50.0,30.01,NW,312,0.0,-999.0,34,-99.99,,,0.00,weatherlink.com 1.10,2013-09-15 18:10:00,
2013-09-15 13:25:00,80.9,51.0,30.01,WNW,297,0.0,-999.0,35,-99.99,,,0.00,weatherlink.com 1.10,2013-09-15 18:25:00,
2013-09-15 13:40:00,82.2,52.0,30.00,SW,222,0.0,-999.0,35,-99.99,,,0.00,weatherlink.com 1.10,2013-09-15 18:40:00,
2013-09-15 13:55:00,82.4,51.0,30.00,NW,304,0.0,-999.0,33,-99.99,,,0.00,weatherlink.com 1.10,2013-09-15 18:55:00,
2013-09-15 14:10:00,83.4,49.0,30.00,SSW,210,3.0,-999.0,30,-99.99,,,0.00,weatherlink.com 1.10,2013-09-15 19:10:00,
2013-09-15 14:25:00,83.0,49.0,29.99,SW,214,7.0,-999.0,30,-99.99,,,0.00,weatherlink.com 1.10,2013-09-15 19:25:00,
2013-09-15 14:40:00,82.4,49.0,29.99,WSW,244,2.0,-999.0,31,-99.99,,,0.00,weatherlink.com 1.10,2013-09-15 19:40:00,
2013-09-15 15:10:00,83.8,50.0,29.98,NNW,327,0.0,-999.0,31,-99.99,,,0.00,weatherlink.com 1.10,2013-09-15 20:10:00,
2013-09-15 15:25:00,84.7,51.0,29.98,WSW,247,2.0,-999.0,31,-99.99,,,0.00,weatherlink.com 1.10,2013-09-15 20:25:00,
2013-09-15 15:40:00,83.8,51.0,29.98,SSW,211,0.0,-999.0,32,-99.99,,,0.00,weatherlink.com 1.10,2013-09-15 20:40:00,
2013-09-15 15:55:00,84.0,48.0,29.98,SW,219,0.0,-999.0,29,-99.99,,,0.00,weatherlink.com 1.10,2013-09-15 20:55:00,
2013-09-15 16:10:00,84.7,48.0,29.98,SW,224,0.0,-999.0,28,-99.99,,,0.00,weatherlink.com 1.10,2013-09-15 21:10:00,
2013-09-15 16:25:00,83.8,48.0,29.97,SW,217,0.0,-999.0,29,-99.99,,,0.00,weatherlink.com 1.10,2013-09-15 21:25:00,
2013-09-15 16:40:00,83.6,49.0,29.97,South,183,0.0,-999.0,30,-99.99,,,0.00,weatherlink.com 1.10,2013-09-15 21:40:00,
2013-09-15 16:55:00,84.1,49.0,29.97,South,183,0.0,-999.0,29,-99.99,,,0.00,weatherlink.com 1.10,2013-09-15 21:55:00,
2013-09-15 17:10:00,84.0,48.0,29.97,SW,230,0.0,-999.0,28,-99.99,,,0.00,weatherlink.com 1.10,2013-09-15 22:10:00,
2013-09-15 17:25:00,84.0,48.0,29.97,SW,230,0.0,-999.0,28,-99.99,,,0.00,weatherlink.com 1.10,2013-09-15 22:25:00,
2013-09-15 17:41:00,84.1,48.0,29.97,SW,230,0.0,-999.0,28,-99.99,,,0.00,weatherlink.com 1.10,2013-09-15 22:41:00,
2013-09-15 17:56:00,83.4,49.0,29.98,WSW,240,0.0,-999.0,30,-99.99,,,0.00,weatherlink.com 1.10,2013-09-15 22:56:00,
2013-09-15 18:11:00,82.2,50.0,29.98,WSW,240,0.0,-999.0,33,-99.99,,,0.00,weatherlink.com 1.10,2013-09-15 23:11:00,
2013-09-15 18:26:00,81.4,50.0,29.97,WSW,240,0.0,-999.0,33,-99.99,,,0.00,weatherlink.com 1.10,2013-09-15 23:26:00,
2013-09-15 18:41:00,80.1,54.0,29.97,WSW,240,0.0,-999.0,40,-99.99,,,0.00,weatherlink.com 1.10,2013-09-15 23:41:00,
2013-09-15 18:56:00,77.9,55.0,29.97,WSW,240,0.0,-999.0,46,-99.99,,,0.00,weatherlink.com 1.10,2013-09-15 23:56:00,
2013-09-15 19:11:00,76.8,54.0,29.98,WSW,239,0.0,-999.0,46,-99.99,,,0.00,weatherlink.com 1.10,2013-09-16 00:11:00,
2013-09-15 19:26:00,76.1,55.0,29.98,WSW,239,0.0,-999.0,48,-99.99,,,0.00,weatherlink.com 1.10,2013-09-16 00:26:00,
2013-09-15 19:41:00,75.4,55.0,29.97,WSW,239,0.0,-999.0,49,-99.99,,,0.00,weatherlink.com 1.10,2013-09-16 00:41:00,
2013-09-15 19:56:00,74.9,55.0,29.97,WSW,239,0.0,-999.0,51,-99.99,,,0.00,weatherlink.com 1.10,2013-09-16 00:56:00,
2013-09-15 20:11:00,74.2,56.0,29.97,WSW,238,0.0,-999.0,53,-99.99,,,0.00,weatherlink.com 1.10,2013-09-16 01:11:00,
2013-09-15 20:26:00,73.2,56.0,29.98,WSW,239,0.0,-999.0,56,-99.99,,,0.00,weatherlink.com 1.10,2013-09-16 01:26:00,
2013-09-15 20:41:00,72.0,57.0,29.98,WSW,238,0.0,-999.0,59,-99.99,,,0.00,weatherlink.com 1.10,2013-09-16 01:41:00,
2013-09-15 20:56:00,71.3,57.0,29.98,WSW,238,0.0,-999.0,61,-99.99,,,0.00,weatherlink.com 1.10,2013-09-16 01:56:00,
2013-09-15 21:12:00,70.8,57.0,29.98,WSW,239,0.0,-999.0,62,-99.99,,,0.00,weatherlink.com 1.10,2013-09-16 02:12:00,
2013-09-15 21:26:00,70.1,57.0,29.98,WSW,239,0.0,-999.0,64,-99.99,,,0.00,weatherlink.com 1.10,2013-09-16 02:26:00,
2013-09-15 21:41:00,69.1,58.0,29.98,WSW,239,0.0,-999.0,68,-99.99,,,0.00,weatherlink.com 1.10,2013-09-16 02:41:00,
2013-09-15 21:56:00,68.1,58.0,29.98,WSW,239,0.0,-999.0,70,-99.99,,,0.00,weatherlink.com 1.10,2013-09-16 02:56:00,
2013-09-15 22:11:00,67.6,58.0,29.98,WSW,239,0.0,-999.0,72,-99.99,,,0.00,weatherlink.com 1.10,2013-09-16 03:11:00,
2013-09-15 22:26:00,67.1,58.0,29.99,WSW,239,0.0,-999.0,73,-99.99,,,0.00,weatherlink.com 1.10,2013-09-16 03:26:00,
2013-09-15 22:41:00,67.3,58.0,29.99,WSW,238,0.0,-999.0,73,-99.99,,,0.00,weatherlink.com 1.10,2013-09-16 03:41:00,
2013-09-15 22:56:00,66.8,58.0,29.99,WSW,239,0.0,-999.0,74,-99.99,,,0.00,weatherlink.com 1.10,2013-09-16 03:56:00,
2013-09-15 23:11:00,66.3,58.0,29.99,WSW,239,0.0,-999.0,75,-99.99,,,0.00,weatherlink.com 1.10,2013-09-16 04:11:00,
2013-09-15 23:26:00,65.8,58.0,29.99,WSW,238,0.0,-999.0,77,-99.99,,,0.00,weatherlink.com 1.10,2013-09-16 04:26:00,
2013-09-15 23:41:00,65.2,58.0,29.99,WSW,238,0.0,-999.0,77,-99.99,,,0.00,weatherlink.com 1.10,2013-09-16 04:41:00,
2013-09-15 23:56:00,65.3,58.0,29.99,WSW,238,0.0,-999.0,77,-99.99,,,0.00,weatherlink.com 1.10,2013-09-16 04:56:00,